TIME,�g�[�{�C���[-���� [L],�t���O,�����{�C���[-���� [L],�t���O,�g�[�{�C���[-���� [MJ/h],�t���O,�����{�C���[-���� [MJ/h],�t���O
2003/1/1 0:00,0.130893106,0,0.02205703,0,19.215108,0,3.237972,0
2003/1/1 0:15,0.13105406,0,0,0,19.238736,0,0,0
2003/1/1 0:30,0.131215014,0,0,0,19.262364,0,0,0
2003/1/1 0:45,0.131215014,0,0,0,19.262364,0,0,0
2003/1/1 1:00,0.131375967,0,0,0,19.285992,0,0,0
2003/1/1 1:15,0.131375967,0,0.006118038,0,19.285992,0,0.898128,0
2003/1/1 1:30,0.131215014,0,0,0,19.262364,0,0,0
2003/1/1 1:45,0.131375967,0,0,0,19.285992,0,0,0
2003/1/1 2:00,0.131537003,0,0.005635014,0,19.309632,0,0.82722,0
2003/1/1 2:15,0.131537003,0,0.039123025,0,19.309632,0,5.74326,0
2003/1/1 2:30,0.131537003,0,0,0,19.309632,0,0,0
2003/1/1 2:45,0.131537003,0,0,0,19.309632,0,0,0
2003/1/1 3:00,0.131698038,0,0,0,19.333272,0,0,0
2003/1/1 3:15,0.131537003,0,0,0,19.309632,0,0,0
2003/1/1 3:30,0.131698038,0,0,0,19.333272,0,0,0
2003/1/1 3:45,0.131537003,0,0,0,19.309632,0,0,0
2003/1/1 4:00,0.131537003,0,0,0,19.309632,0,0,0
2003/1/1 4:15,0.131537003,0,0,0,19.309632,0,0,0
2003/1/1 4:30,0.131537003,0,0.021895995,0,19.309632,0,3.214332,0
2003/1/1 4:45,0.131537003,0,0,0,19.309632,0,0,0
2003/1/1 5:00,0.131537003,0,0,0,19.309632,0,0,0
2003/1/1 5:15,0.131698038,0,0.005957003,0,19.333272,0,0.874488,0
2003/1/1 5:30,0.131537003,0,0,0,19.309632,0,0,0
2003/1/1 5:45,0.131698038,0,0,0,19.333272,0,0,0
2003/1/1 6:00,0.131698038,0,0,0,19.333272,0,0,0
2003/1/1 6:15,0.131859074,0,0,0,19.356912,0,0,0
2003/1/1 6:30,0.131859074,0,0.044597003,0,19.356912,0,6.54684,0
2003/1/1 6:45,0.132020027,0,0.000321989,0,19.38054,0,0.047268,0
2003/1/1 7:00,0.131859074,0,0,0,19.356912,0,0,0
2003/1/1 7:15,0.131859074,0,0,0,19.356912,0,0,0
2003/1/1 7:30,0.131859074,0,0,0,19.356912,0,0,0
2003/1/1 7:45,0.131698038,0,0,0,19.333272,0,0,0
2003/1/1 8:00,0.131698038,0,0,0,19.333272,0,0,0
2003/1/1 8:15,0.131537003,0,0,0,19.309632,0,0,0
2003/1/1 8:30,0.131537003,0,0,0,19.309632,0,0,0
2003/1/1 8:45,0.131537003,0,0.021574005,0,19.309632,0,3.167064,0
2003/1/1 9:00,0.131375967,0,0.016422016,0,19.285992,0,2.410752,0
2003/1/1 9:15,0.131215014,0,0,0,19.262364,0,0,0
2003/1/1 9:30,0.131215014,0,0,0,19.262364,0,0,0
2003/1/1 9:45,0.131215014,0,0,0,19.262364,0,0,0
2003/1/1 10:00,0.13105406,0,0,0,19.238736,0,0,0
2003/1/1 10:15,0.130893106,0,0,0,19.215108,0,0,0
2003/1/1 10:30,0.130893106,0,0.085329973,0,19.215108,0,12.52644,0
2003/1/1 10:45,0.130732071,0,0.160517003,0,19.191468,0,23.563896,0
2003/1/1 11:00,0.130571035,0,0,0,19.167828,0,0,0
2003/1/1 11:15,0.130571035,0,0,0,19.167828,0,0,0
2003/1/1 11:30,0.13041,0,0,0,19.144188,0,0,0
2003/1/1 11:45,0.130571035,0,0,0,19.167828,0,0,0
2003/1/1 12:00,0.130571035,0,0,0,19.167828,0,0,0
2003/1/1 12:15,0.130571035,0,0,0,19.167828,0,0,0
2003/1/1 12:30,0.13041,0,0,0,19.144188,0,0,0
2003/1/1 12:45,0.13041,0,0,0,19.144188,0,0,0
2003/1/1 13:00,0.130087929,0,0,0,19.096908,0,0,0
2003/1/1 13:15,0.130248965,0,0,0,19.120548,0,0,0
2003/1/1 13:30,0.130248965,0,0,0,19.120548,0,0,0
2003/1/1 13:45,0.130087929,0,0,0,19.096908,0,0,0
2003/1/1 14:00,0.130087929,0,0,0,19.096908,0,0,0
2003/1/1 14:15,0.13041,0,0,0,19.144188,0,0,0
2003/1/1 14:30,0.130087929,0,0.009176975,0,19.096908,0,1.34718,0
2003/1/1 14:45,0.130248965,0,0,0,19.120548,0,0,0
2003/1/1 15:00,0.129926894,0,0,0,19.073268,0,0,0
2003/1/1 15:15,0.129926894,0,0,0,19.073268,0,0,0
2003/1/1 15:30,0.129926894,0,0.005635014,0,19.073268,0,0.82722,0
2003/1/1 15:45,0.129926894,0,0.000805014,0,19.073268,0,0.118176,0
2003/1/1 16:00,0.130087929,0,0.044113978,0,19.096908,0,6.475932,0
2003/1/1 16:15,0.130248965,0,0,0,19.120548,0,0,0
2003/1/1 16:30,0.130248965,0,0,0,19.120548,0,0,0
2003/1/1 16:45,0.130732071,0,0,0,19.191468,0,0,0
2003/1/1 17:00,0.130732071,0,0,0,19.191468,0,0,0
2003/1/1 17:15,0.130732071,0,0,0,19.191468,0,0,0
2003/1/1 17:30,0.130893106,0,0,0,19.215108,0,0,0
2003/1/1 17:45,0.130732071,0,0,0,19.191468,0,0,0
2003/1/1 18:00,0.130893106,0,0,0,19.215108,0,0,0
2003/1/1 18:15,0.130893106,0,0,0,19.215108,0,0,0
2003/1/1 18:30,0.130893025,0,0,0,19.215096,0,0,0
2003/1/1 18:45,0.130893106,0,0,0,19.215108,0,0,0
2003/1/1 19:00,0.13105406,0,0,0,19.238736,0,0,0
2003/1/1 19:15,0.13041,0,0,0,19.144188,0,0,0
2003/1/1 19:30,0.130248965,0,0.020768992,0,19.120548,0,3.048888,0
2003/1/1 19:45,0.130893106,0,0.023022997,0,19.215108,0,3.379776,0
2003/1/1 20:00,0.130893106,0,0,0,19.215108,0,0,0
2003/1/1 20:15,0.13105406,0,0,0,19.238736,0,0,0
2003/1/1 20:30,0.13105406,0,0,0,19.238736,0,0,0
2003/1/1 20:45,0.130893106,0,0,0,19.215108,0,0,0
2003/1/1 21:00,0.13105406,0,0,0,19.238736,0,0,0
2003/1/1 21:15,0.13105406,0,0,0,19.238736,0,0,0
2003/1/1 21:30,0.13105406,0,0,0,19.238736,0,0,0
2003/1/1 21:45,0.131215014,0,0.473661989,0,19.262364,0,69.53358,0
2003/1/1 22:00,0.13105406,0,0.397025967,0,19.238736,0,58.283412,0
2003/1/1 22:15,0.13105406,0,0.001610027,0,19.238736,0,0.236352,0
2003/1/1 22:30,0.131215014,0,0.590708992,0,19.262364,0,86.71608,0
2003/1/1 22:45,0.166152016,0,0.347438011,0,24.391116,0,51.0039,0
2003/1/1 23:00,0.249871962,0,0.021735041,0,36.681204,0,3.190704,0
2003/1/1 23:15,0.232645014,0,0.083398038,0,34.152288,0,12.242832,0
2003/1/1 23:30,0.212841989,0,0.000321989,0,31.245204,0,0.047268,0
2003/1/1 23:45,0.118495995,0,0,0,17.395212,0,0,0
2003/1/2 0:00,0.130571035,0,0,0,19.167828,0,0,0
2003/1/2 0:15,0.130571035,0,0,0,19.167828,0,0,0
2003/1/2 0:30,0.130732071,0,0,0,19.191468,0,0,0
2003/1/2 0:45,0.130732071,0,0,0,19.191468,0,0,0
2003/1/2 1:00,0.130732071,0,0,0,19.191468,0,0,0
2003/1/2 1:15,0.130732071,0,0,0,19.191468,0,0,0
2003/1/2 1:30,0.130571035,0,0,0,19.167828,0,0,0
2003/1/2 1:45,0.130732071,0,0,0,19.191468,0,0,0
2003/1/2 2:00,0.130732071,0,0,0,19.191468,0,0,0
2003/1/2 2:15,0.130732071,0,0,0,19.191468,0,0,0
2003/1/2 2:30,0.130732071,0,0,0,19.191468,0,0,0
2003/1/2 2:45,0.130732071,0,0,0,19.191468,0,0,0
2003/1/2 3:00,0.130732071,0,0.009981989,0,19.191468,0,1.465356,0
2003/1/2 3:15,0.130732071,0,0,0,19.191468,0,0,0
2003/1/2 3:30,0.130732071,0,0,0,19.191468,0,0,0
2003/1/2 3:45,0.130732071,0,0,0,19.191468,0,0,0
2003/1/2 4:00,0.130732071,0,0,0,19.191468,0,0,0
2003/1/2 4:15,0.130571035,0,0,0,19.167828,0,0,0
2003/1/2 4:30,0.130732071,0,0,0,19.191468,0,0,0
2003/1/2 4:45,0.13041,0,0,0,19.144188,0,0,0
2003/1/2 5:00,0.130732071,0,0,0,19.191468,0,0,0
2003/1/2 5:15,0.130732071,0,0,0,19.191468,0,0,0
2003/1/2 5:30,0.130732071,0,0.015778038,0,19.191468,0,2.316216,0
2003/1/2 5:45,0.130732071,0,0,0,19.191468,0,0,0
2003/1/2 6:00,0.130732071,0,0,0,19.191468,0,0,0
2003/1/2 6:15,0.130893106,0,0,0,19.215108,0,0,0
2003/1/2 6:30,0.130571035,0,0.399119019,0,19.167828,0,58.590672,0
2003/1/2 6:45,0.130893106,0,0.544662997,0,19.215108,0,79.956528,0
2003/1/2 7:00,0.130732071,0,0,0,19.191468,0,0,0
2003/1/2 7:15,0.130893106,0,0,0,19.215108,0,0,0
2003/1/2 7:30,0.130732071,0,0,0,19.191468,0,0,0
2003/1/2 7:45,0.130571035,0,0,0,19.167828,0,0,0
2003/1/2 8:00,0.129926894,0,0,0,19.073268,0,0,0
2003/1/2 8:15,0.129282997,0,0,0,18.978744,0,0,0
2003/1/2 8:30,0.12976594,0,0,0,19.04964,0,0,0
2003/1/2 8:45,0.130248965,0,0,0,19.120548,0,0,0
2003/1/2 9:00,0.13041,0,0.031555995,0,19.144188,0,4.63242,0
2003/1/2 9:15,0.13041,0,0.252448038,0,19.144188,0,37.059372,0
2003/1/2 9:30,0.13041,0,0.047172997,0,19.144188,0,6.924996,0
2003/1/2 9:45,0.130571035,0,0,0,19.167828,0,0,0
2003/1/2 10:00,0.130732071,0,0.015617003,0,19.191468,0,2.292576,0
2003/1/2 10:15,0.130732071,0,0.000321989,0,19.191468,0,0.047268,0
2003/1/2 10:30,0.130732071,0,0,0,19.191468,0,0,0
2003/1/2 10:45,0.130893106,0,0,0,19.215108,0,0,0
2003/1/2 11:00,0.130893106,0,0,0,19.215108,0,0,0
2003/1/2 11:15,0.130893106,0,0,0,19.215108,0,0,0
2003/1/2 11:30,0.13105406,0,0,0,19.238736,0,0,0
2003/1/2 11:45,0.130732071,0,0.009821035,0,19.191468,0,1.441728,0
2003/1/2 12:00,0.130732071,0,0,0,19.191468,0,0,0
2003/1/2 12:15,0.130732071,0,0,0,19.191468,0,0,0
2003/1/2 12:30,0.130732071,0,0,0,19.191468,0,0,0
2003/1/2 12:45,0.130732071,0,0,0,19.191468,0,0,0
2003/1/2 13:00,0.130732071,0,0.009821035,0,19.191468,0,1.441728,0
2003/1/2 13:15,0.13041,0,0.016422016,0,19.144188,0,2.410752,0
2003/1/2 13:30,0.130732071,0,0,0,19.191468,0,0,0
2003/1/2 13:45,0.130571035,0,0,0,19.167828,0,0,0
2003/1/2 14:00,0.130732071,0,0,0,19.191468,0,0,0
2003/1/2 14:15,0.130732071,0,0,0,19.191468,0,0,0
2003/1/2 14:30,0.130571035,0,0,0,19.167828,0,0,0
2003/1/2 14:45,0.130571035,0,0,0,19.167828,0,0,0
2003/1/2 15:00,0.130571035,0,0,0,19.167828,0,0,0
2003/1/2 15:15,0.130732071,0,0,0,19.191468,0,0,0
2003/1/2 15:30,0.130732071,0,0.00966,0,19.191468,0,1.418088,0
2003/1/2 15:45,0.130893106,0,0,0,19.215108,0,0,0
2003/1/2 16:00,0.130893106,0,0.02205703,0,19.215108,0,3.237972,0
2003/1/2 16:15,0.130893106,0,0,0,19.215108,0,0,0
2003/1/2 16:30,0.130732071,0,0,0,19.191468,0,0,0
2003/1/2 16:45,0.130732071,0,0,0,19.191468,0,0,0
2003/1/2 17:00,0.130732071,0,0,0,19.191468,0,0,0
2003/1/2 17:15,0.130893106,0,0,0,19.215108,0,0,0
2003/1/2 17:30,0.130893106,0,0,0,19.215108,0,0,0
2003/1/2 17:45,0.130893106,0,0,0,19.215108,0,0,0
2003/1/2 18:00,0.130893106,0,0.00966,0,19.215108,0,1.418088,0
2003/1/2 18:15,0.130893106,0,0.022218065,0,19.215108,0,3.261612,0
2003/1/2 18:30,0.130893106,0,0,0,19.215108,0,0,0
2003/1/2 18:45,0.130893106,0,0,0,19.215108,0,0,0
2003/1/2 19:00,0.131215014,0,0,0,19.262364,0,0,0
2003/1/2 19:15,0.131215014,0,0,0,19.262364,0,0,0
2003/1/2 19:30,0.131375967,0,0,0,19.285992,0,0,0
2003/1/2 19:45,0.131537003,0,0.098693052,0,19.309632,0,14.48814,0
2003/1/2 20:00,0.131215014,0,0.016583052,0,19.262364,0,2.434392,0
2003/1/2 20:15,0.130248965,0,0.110928965,0,19.120548,0,16.284372,0
2003/1/2 20:30,0.13041,0,0.016905041,0,19.144188,0,2.48166,0
2003/1/2 20:45,0.130732071,0,0,0,19.191468,0,0,0
2003/1/2 21:00,0.131537003,0,0.005957003,0,19.309632,0,0.874488,0
2003/1/2 21:15,0.131537003,0,0,0,19.309632,0,0,0
2003/1/2 21:30,0.131375967,0,0,0,19.285992,0,0,0
2003/1/2 21:45,0.131376049,0,0,0,19.286004,0,0,0
2003/1/2 22:00,0.131375967,0,0,0,19.285992,0,0,0
2003/1/2 22:15,0.131537003,0,0.010465014,0,19.309632,0,1.536264,0
2003/1/2 22:30,0.131537003,0,1.61E-04,0,19.309632,0,0.02364,0
2003/1/2 22:45,0.131537003,0,0.03864,0,19.309632,0,5.672352,0
2003/1/2 23:00,0.131375967,0,0.320390027,0,19.285992,0,47.033256,0
2003/1/2 23:15,0.131537003,0,0,0,19.309632,0,0,0
2003/1/2 23:30,0.131215014,0,0,0,19.262364,0,0,0
2003/1/2 23:45,0.131215014,0,0,0,19.262364,0,0,0
2003/1/3 0:00,0.131376049,0,0,0,19.286004,0,0,0
2003/1/3 0:15,0.131698038,0,0.103201063,0,19.333272,0,15.149916,0
2003/1/3 0:30,0.131698038,0,0,0,19.333272,0,0,0
2003/1/3 0:45,0.131698038,0,0,0,19.333272,0,0,0
2003/1/3 1:00,0.131859074,0,0.02205703,0,19.356912,0,3.237972,0
2003/1/3 1:15,0.131859074,0,0,0,19.356912,0,0,0
2003/1/3 1:30,0.131859074,0,0,0,19.356912,0,0,0
2003/1/3 1:45,0.131698038,0,0,0,19.333272,0,0,0
2003/1/3 2:00,0.131698038,0,0,0,19.333272,0,0,0
2003/1/3 2:15,0.131698038,0,0,0,19.333272,0,0,0
2003/1/3 2:30,0.131537003,0,0,0,19.309632,0,0,0
2003/1/3 2:45,0.131698038,0,0,0,19.333272,0,0,0
2003/1/3 3:00,0.131859074,0,0,0,19.356912,0,0,0
2003/1/3 3:15,0.131698038,0,0.038157057,0,19.333272,0,5.601456,0
2003/1/3 3:30,0.131537003,0,0,0,19.309632,0,0,0
2003/1/3 3:45,0.131859074,0,0,0,19.356912,0,0,0
2003/1/3 4:00,0.131698038,0,0,0,19.333272,0,0,0
2003/1/3 4:15,0.131698038,0,0,0,19.333272,0,0,0
2003/1/3 4:30,0.131698038,0,0,0,19.333272,0,0,0
2003/1/3 4:45,0.131698038,0,0,0,19.333272,0,0,0
2003/1/3 5:00,0.131537003,0,0,0,19.309632,0,0,0
2003/1/3 5:15,0.131859074,0,0.02205703,0,19.356912,0,3.237972,0
2003/1/3 5:30,0.131859074,0,0,0,19.356912,0,0,0
2003/1/3 5:45,0.132020027,0,0,0,19.38054,0,0,0
2003/1/3 6:00,0.132180981,0,0.006440027,0,19.404168,0,0.945396,0
2003/1/3 6:15,0.132020027,0,0,0,19.38054,0,0,0
2003/1/3 6:30,0.132180981,0,0,0,19.404168,0,0,0
2003/1/3 6:45,0.132180981,0,0,0,19.404168,0,0,0
2003/1/3 7:00,0.132180981,0,0,0,19.404168,0,0,0
2003/1/3 7:15,0.132020027,0,0.650440054,0,19.38054,0,95.4846,0
2003/1/3 7:30,0.132020027,0,0.117530027,0,19.38054,0,17.253408,0
2003/1/3 7:45,0.132020027,0,0,0,19.38054,0,0,0
2003/1/3 8:00,0.131698038,0,0,0,19.333272,0,0,0
2003/1/3 8:15,0.131537003,0,0,0,19.309632,0,0,0
2003/1/3 8:30,0.131375967,0,0,0,19.285992,0,0,0
2003/1/3 8:45,0.140552943,0,0,0,20.633172,0,0,0
2003/1/3 9:00,0.201088937,0,0,0,29.519856,0,0,0
2003/1/3 9:15,0.130571035,0,0,0,19.167828,0,0,0
2003/1/3 9:30,0.130732071,0,0,0,19.191468,0,0,0
2003/1/3 9:45,0.130571035,0,0,0,19.167828,0,0,0
2003/1/3 10:00,0.130732071,0,0.032199973,0,19.191468,0,4.726956,0
2003/1/3 10:15,0.130571035,0,0,0,19.167828,0,0,0
2003/1/3 10:30,0.13041,0,0.005957003,0,19.144188,0,0.874488,0
2003/1/3 10:45,0.130248965,0,0,0,19.120548,0,0,0
2003/1/3 11:00,0.13041,0,0,0,19.144188,0,0,0
2003/1/3 11:15,0.13041,0,0,0,19.144188,0,0,0
2003/1/3 11:30,0.13041,0,0,0,19.144188,0,0,0
2003/1/3 11:45,0.130248965,0,0,0,19.120548,0,0,0
2003/1/3 12:00,0.130248965,0,0,0,19.120548,0,0,0
2003/1/3 12:15,0.130248965,0,0,0,19.120548,0,0,0
2003/1/3 12:30,0.130087929,0,0.015617003,0,19.096908,0,2.292576,0
2003/1/3 12:45,0.130087929,0,0,0,19.096908,0,0,0
2003/1/3 13:00,0.130248965,0,0,0,19.120548,0,0,0
2003/1/3 13:15,0.130087929,0,0,0,19.096908,0,0,0
2003/1/3 13:30,0.130087929,0,0.022701008,0,19.096908,0,3.332508,0
2003/1/3 13:45,0.130087929,0,0.025115967,0,19.096908,0,3.687024,0
2003/1/3 14:00,0.130087929,0,0,0,19.096908,0,0,0
2003/1/3 14:15,0.129926894,0,0,0,19.073268,0,0,0
2003/1/3 14:30,0.129926894,0,0,0,19.073268,0,0,0
2003/1/3 14:45,0.12976594,0,0,0,19.04964,0,0,0
2003/1/3 15:00,0.12976594,0,0,0,19.04964,0,0,0
2003/1/3 15:15,0.129604986,0,0.041537984,0,19.026012,0,6.097776,0
2003/1/3 15:30,0.12976594,0,0,0,19.04964,0,0,0
2003/1/3 15:45,0.129604986,0,0,0,19.026012,0,0,0
2003/1/3 16:00,0.129926894,0,0,0,19.073268,0,0,0
2003/1/3 16:15,0.129926894,0,0,0,19.073268,0,0,0
2003/1/3 16:30,0.130087929,0,0,0,19.096908,0,0,0
2003/1/3 16:45,0.130248965,0,0.013684986,0,19.120548,0,2.008956,0
2003/1/3 17:00,0.129604986,0,0,0,19.026012,0,0,0
2003/1/3 17:15,0.129604986,0,0,0,19.026012,0,0,0
2003/1/3 17:30,0.12976594,0,0,0,19.04964,0,0,0
2003/1/3 17:45,0.129604986,0,0,0,19.026012,0,0,0
2003/1/3 18:00,0.129604986,0,0,0,19.026012,0,0,0
2003/1/3 18:15,0.12976594,0,0.194648992,0,19.04964,0,28.574472,0
2003/1/3 18:30,0.129604986,0,0,0,19.026012,0,0,0
2003/1/3 18:45,0.12976594,0,0,0,19.04964,0,0,0
2003/1/3 19:00,0.12976594,0,0,0,19.04964,0,0,0
2003/1/3 19:15,0.129926894,0,0.009981989,0,19.073268,0,1.465356,0
2003/1/3 19:30,0.129926894,0,0,0,19.073268,0,0,0
2003/1/3 19:45,0.130087929,0,0,0,19.096908,0,0,0
2003/1/3 20:00,0.130087929,0,0,0,19.096908,0,0,0
2003/1/3 20:15,0.13041,0,0.063273025,0,19.144188,0,9.28848,0
2003/1/3 20:30,0.130248965,0,0.030107003,0,19.120548,0,4.419708,0
2003/1/3 20:45,0.130087929,0,0.013041008,0,19.096908,0,1.91442,0
2003/1/3 21:00,0.12976594,0,0.059087003,0,19.04964,0,8.673972,0
2003/1/3 21:15,0.129604986,0,0.055062016,0,19.026012,0,8.083104,0
2003/1/3 21:30,0.129444033,0,0.838809973,0,19.002384,0,123.137304,0
2003/1/3 21:45,0.12976594,0,0.181125041,0,19.04964,0,26.589156,0
2003/1/3 22:00,0.129926894,0,0.272734005,0,19.073268,0,40.037352,0
2003/1/3 22:15,0.12976594,0,0,0,19.04964,0,0,0
2003/1/3 22:30,0.129926894,0,0,0,19.073268,0,0,0
2003/1/3 22:45,0.130087929,0,0,0,19.096908,0,0,0
2003/1/3 23:00,0.130087929,0,0,0,19.096908,0,0,0
2003/1/3 23:15,0.130087929,0,0,0,19.096908,0,0,0
2003/1/3 23:30,0.130087929,0,0.102073978,0,19.096908,0,14.98446,0
2003/1/3 23:45,0.13041,0,0.182252044,0,19.144188,0,26.7546,0
2003/1/4 0:00,0.13041,0,0.021574005,0,19.144188,0,3.167064,0
2003/1/4 0:15,0.13041,0,0,0,19.144188,0,0,0
2003/1/4 0:30,0.13041,0,0,0,19.144188,0,0,0
2003/1/4 0:45,0.130248965,0,0,0,19.120548,0,0,0
2003/1/4 1:00,0.130571035,0,0,0,19.167828,0,0,0
2003/1/4 1:15,0.130248965,0,0,0,19.120548,0,0,0
2003/1/4 1:30,0.130571035,0,0,0,19.167828,0,0,0
2003/1/4 1:45,0.13041,0,0,0,19.144188,0,0,0
2003/1/4 2:00,0.13041,0,0,0,19.144188,0,0,0
2003/1/4 2:15,0.13041,0,0,0,19.144188,0,0,0
2003/1/4 2:30,0.13041,0,0,0,19.144188,0,0,0
2003/1/4 2:45,0.130248965,0,0,0,19.120548,0,0,0
2003/1/4 3:00,0.13041,0,0,0,19.144188,0,0,0
2003/1/4 3:15,0.130248965,0,0,0,19.120548,0,0,0
2003/1/4 3:30,0.130087929,0,0,0,19.096908,0,0,0
2003/1/4 3:45,0.130248965,0,0,0,19.120548,0,0,0
2003/1/4 4:00,0.130248965,0,0,0,19.120548,0,0,0
2003/1/4 4:15,0.130087929,0,0.00966,0,19.096908,0,1.418088,0
2003/1/4 4:30,0.130087929,0,0,0,19.096908,0,0,0
2003/1/4 4:45,0.130248965,0,0,0,19.120548,0,0,0
2003/1/4 5:00,0.130087929,0,0,0,19.096908,0,0,0
2003/1/4 5:15,0.130248965,0,0,0,19.120548,0,0,0
2003/1/4 5:30,0.130248965,0,0,0,19.120548,0,0,0
2003/1/4 5:45,0.130248965,0,0,0,19.120548,0,0,0
2003/1/4 6:00,0.130087929,0,0,0,19.096908,0,0,0
2003/1/4 6:15,0.130248965,0,0.009981989,0,19.120548,0,1.465356,0
2003/1/4 6:30,0.130248965,0,0,0,19.120548,0,0,0
2003/1/4 6:45,0.130248965,0,0,0,19.120548,0,0,0
2003/1/4 7:00,0.130248965,0,0,0,19.120548,0,0,0
2003/1/4 7:15,0.130248965,0,0,0,19.120548,0,0,0
2003/1/4 7:30,0.130248965,0,0,0,19.120548,0,0,0
2003/1/4 7:45,0.130087929,0,0,0,19.096908,0,0,0
2003/1/4 8:00,0.130248965,0,0,0,19.120548,0,0,0
2003/1/4 8:15,0.129604986,0,0,0,19.026012,0,0,0
2003/1/4 8:30,0.129121962,0,0.00966,0,18.955104,0,1.418088,0
2003/1/4 8:45,0.128960926,0,0,0,18.931464,0,0,0
2003/1/4 9:00,0.129282997,0,0,0,18.978744,0,0,0
2003/1/4 9:15,0.129282997,0,0,0,18.978744,0,0,0
2003/1/4 9:30,0.129121962,0,0,0,18.955104,0,0,0
2003/1/4 9:45,0.129121962,0,0,0,18.955104,0,0,0
2003/1/4 10:00,0.129121962,0,0.705502071,0,18.955104,0,103.567704,0
2003/1/4 10:15,0.128960926,0,0.000321989,0,18.931464,0,0.047268,0
2003/1/4 10:30,0.129121962,0,0,0,18.955104,0,0,0
2003/1/4 10:45,0.129121962,0,0,0,18.955104,0,0,0
2003/1/4 11:00,0.128960926,0,0.005957003,0,18.931464,0,0.874488,0
2003/1/4 11:15,0.128960926,0,0,0,18.931464,0,0,0
2003/1/4 11:30,0.129121962,0,0,0,18.955104,0,0,0
2003/1/4 11:45,0.128960926,0,0,0,18.931464,0,0,0
2003/1/4 12:00,0.128960926,0,0,0,18.931464,0,0,0
2003/1/4 12:15,0.128478065,0,0,0,18.86058,0,0,0
2003/1/4 12:30,0.128478065,0,0,0,18.86058,0,0,0
2003/1/4 12:45,0.128478065,0,0,0,18.86058,0,0,0
2003/1/4 13:00,0.059087003,0,0,0,8.673972,0,0,0
2003/1/4 13:15,0.068747003,0,0,0,10.09206,0,0,0
2003/1/4 13:30,0.07035703,0,0,0,10.328412,0,0,0
2003/1/4 13:45,0.066814986,0,0.009498965,0,9.80844,0,1.394448,0
2003/1/4 14:00,0.083719946,0,0.102718038,0,12.290088,0,15.079008,0
2003/1/4 14:15,0.089515995,0,0.056511008,0,13.140948,0,8.295816,0
2003/1/4 14:30,0.070678937,0,0.521479046,0,10.375668,0,76.553124,0
2003/1/4 14:45,0.078246049,0,0.516005068,0,11.48652,0,75.749544,0
2003/1/4 15:00,0.09933703,0,0.092575014,0,14.582676,0,13.590012,0
2003/1/4 15:15,0.101912943,0,0.085812997,0,14.96082,0,12.597348,0
2003/1/4 15:30,0.104811008,0,0.052969046,0,15.386256,0,7.775856,0
2003/1/4 15:45,0.129282997,0,0.055384005,0,18.978744,0,8.130372,0
2003/1/4 16:00,0.129282997,0,0.176777984,0,18.978744,0,25.951008,0
2003/1/4 16:15,0.129444033,0,0.039605967,0,19.002384,0,5.814156,0
2003/1/4 16:30,0.129444033,0,0.064722098,0,19.002384,0,9.501204,0
2003/1/4 16:45,0.129121962,0,0.000321989,0,18.955104,0,0.047268,0
2003/1/4 17:00,0.129282997,0,0,0,18.978744,0,0,0
2003/1/4 17:15,0.129282997,0,0.048621989,0,18.978744,0,7.137708,0
2003/1/4 17:30,0.11109,0,0,0,16.308012,0,0,0
2003/1/4 17:45,0.122359946,0,0.02141297,0,17.96244,0,3.143424,0
2003/1/4 18:00,0.129604986,0,0.021574005,0,19.026012,0,3.167064,0
2003/1/4 18:15,0.129604986,0,0,0,19.026012,0,0,0
2003/1/4 18:30,0.129604986,0,0.170016049,0,19.026012,0,24.958356,0
2003/1/4 18:45,0.129604986,0,0.22556109,0,19.026012,0,33.112368,0
2003/1/4 19:00,0.129282997,0,0.035580981,0,18.978744,0,5.223288,0
2003/1/4 19:15,0.129121962,0,0.04411406,0,18.955104,0,6.475944,0
2003/1/4 19:30,0.12976594,0,0,0,19.04964,0,0,0
2003/1/4 19:45,0.12976594,0,0.304612071,0,19.04964,0,44.717052,0
2003/1/4 20:00,0.129444033,0,0.113022098,0,19.002384,0,16.591644,0
2003/1/4 20:15,0.129604986,0,0.278691008,0,19.026012,0,40.91184,0
2003/1/4 20:30,0.129444033,0,0,0,19.002384,0,0,0
2003/1/4 20:45,0.129444033,0,0.076475068,0,19.002384,0,11.22654,0
2003/1/4 21:00,0.129121962,0,1.61E-04,0,18.955104,0,0.02364,0
2003/1/4 21:15,0.129444033,0,0,0,19.002384,0,0,0
2003/1/4 21:30,0.129444033,0,0.042826022,0,19.002384,0,6.28686,0
2003/1/4 21:45,0.129444033,0,0,0,19.002384,0,0,0
2003/1/4 22:00,0.129282997,0,0.005795967,0,18.978744,0,0.850848,0
2003/1/4 22:15,0.129282997,0,0,0,18.978744,0,0,0
2003/1/4 22:30,0.12976594,0,0,0,19.04964,0,0,0
2003/1/4 22:45,0.130087929,0,0.015778038,0,19.096908,0,2.316216,0
2003/1/4 23:00,0.130087929,0,0,0,19.096908,0,0,0
2003/1/4 23:15,0.130087929,0,0,0,19.096908,0,0,0
2003/1/4 23:30,0.130087929,0,0,0,19.096908,0,0,0
2003/1/4 23:45,0.129926894,0,0,0,19.073268,0,0,0
2003/1/5 0:00,0.129926894,0,0,0,19.073268,0,0,0
2003/1/5 0:15,0.129926894,0,0,0,19.073268,0,0,0
2003/1/5 0:30,0.12976594,0,0,0,19.04964,0,0,0
2003/1/5 0:45,0.129926894,0,0,0,19.073268,0,0,0
2003/1/5 1:00,0.129926894,0,0,0,19.073268,0,0,0
2003/1/5 1:15,0.129926894,0,0,0,19.073268,0,0,0
2003/1/5 1:30,0.130087929,0,0,0,19.096908,0,0,0
2003/1/5 1:45,0.129926894,0,0,0,19.073268,0,0,0
2003/1/5 2:00,0.130087929,0,0.009981989,0,19.096908,0,1.465356,0
2003/1/5 2:15,0.12976594,0,0,0,19.04964,0,0,0
2003/1/5 2:30,0.130087929,0,0,0,19.096908,0,0,0
2003/1/5 2:45,0.129926894,0,0,0,19.073268,0,0,0
2003/1/5 3:00,0.130087929,0,0,0,19.096908,0,0,0
2003/1/5 3:15,0.130248965,0,0.015938992,0,19.120548,0,2.339844,0
2003/1/5 3:30,0.130087929,0,0,0,19.096908,0,0,0
2003/1/5 3:45,0.130087929,0,0,0,19.096908,0,0,0
2003/1/5 4:00,0.130248965,0,0,0,19.120548,0,0,0
2003/1/5 4:15,0.130248965,0,0,0,19.120548,0,0,0
2003/1/5 4:30,0.13041,0,0,0,19.144188,0,0,0
2003/1/5 4:45,0.130248965,0,0,0,19.120548,0,0,0
2003/1/5 5:00,0.130248965,0,0,0,19.120548,0,0,0
2003/1/5 5:15,0.130087929,0,0,0,19.096908,0,0,0
2003/1/5 5:30,0.130248965,0,0,0,19.120548,0,0,0
2003/1/5 5:45,0.130248965,0,0.015938992,0,19.120548,0,2.339844,0
2003/1/5 6:00,0.130248965,0,0,0,19.120548,0,0,0
2003/1/5 6:15,0.130248965,0,0,0,19.120548,0,0,0
2003/1/5 6:30,0.130248965,0,0,0,19.120548,0,0,0
2003/1/5 6:45,0.130248965,0,0,0,19.120548,0,0,0
2003/1/5 7:00,0.130087929,0,0,0,19.096908,0,0,0
2003/1/5 7:15,0.130248965,0,0,0,19.120548,0,0,0
2003/1/5 7:30,0.13041,0,0,0,19.144188,0,0,0
2003/1/5 7:45,0.12976594,0,0,0,19.04964,0,0,0
2003/1/5 8:00,0.129604986,0,0,0,19.026012,0,0,0
2003/1/5 8:15,0.12976594,0,0.015778038,0,19.04964,0,2.316216,0
2003/1/5 8:30,0.130087929,0,0,0,19.096908,0,0,0
2003/1/5 8:45,0.129604986,0,0.045885041,0,19.026012,0,6.735924,0
2003/1/5 9:00,0.129604986,0,0.254379973,0,19.026012,0,37.34298,0
2003/1/5 9:15,0.129926894,0,0.06069703,0,19.073268,0,8.910324,0
2003/1/5 9:30,0.130087929,0,0.034453978,0,19.096908,0,5.057844,0
2003/1/5 9:45,0.129926894,0,0,0,19.073268,0,0,0
2003/1/5 10:00,0.12976594,0,0,0,19.04964,0,0,0
2003/1/5 10:15,0.129121962,0,0.020769074,0,18.955104,0,3.0489,0
2003/1/5 10:30,0.129121962,0,0.058603978,0,18.955104,0,8.603064,0
2003/1/5 10:45,0.129604986,0,0.021251935,0,19.026012,0,3.119784,0
2003/1/5 11:00,0.129444033,0,0.021090981,0,19.002384,0,3.096156,0
2003/1/5 11:15,0.12976594,0,0,0,19.04964,0,0,0
2003/1/5 11:30,0.129604986,0,0,0,19.026012,0,0,0
2003/1/5 11:45,0.129444033,0,0,0,19.002384,0,0,0
2003/1/5 12:00,0.129604986,0,0.009498965,0,19.026012,0,1.394448,0
2003/1/5 12:15,0.129926894,0,0.015295014,0,19.073268,0,2.245308,0
2003/1/5 12:30,0.129926894,0,0,0,19.073268,0,0,0
2003/1/5 12:45,0.129926894,0,0.021895995,0,19.073268,0,3.214332,0
2003/1/5 13:00,0.129926894,0,0.009016022,0,19.073268,0,1.323552,0
2003/1/5 13:15,0.130087929,0,0.006118038,0,19.096908,0,0.898128,0
2003/1/5 13:30,0.129926894,0,0,0,19.073268,0,0,0
2003/1/5 13:45,0.129926894,0,0.005957003,0,19.073268,0,0.874488,0
2003/1/5 14:00,0.129926894,0,0.016100027,0,19.073268,0,2.363484,0